Year,Month,Day,Hour,Minute,Value (Times are PST for temperature in C)
2014,07,08,00,00,16.20
2014,07,08,00,01,16.20
2014,07,08,00,02,16.20
2014,07,08,00,03,16.20
2014,07,08,00,04,16.20
2014,07,08,00,05,16.20
2014,07,08,00,06,16.20
2014,07,08,00,07,16.20
2014,07,08,00,08,16.20
2014,07,08,00,09,16.20
2014,07,08,00,10,16.20
2014,07,08,00,11,16.20
2014,07,08,00,12,16.20
2014,07,08,00,13,16.10
2014,07,08,00,14,16.10
2014,07,08,00,15,16.10
2014,07,08,00,16,16.10
2014,07,08,00,17,16.10
2014,07,08,00,18,16.10
2014,07,08,00,19,16.10
2014,07,08,00,20,16.10
2014,07,08,00,21,16.10
2014,07,08,00,22,16.10
2014,07,08,00,23,16.10
2014,07,08,00,24,16.10
2014,07,08,00,25,16.10
2014,07,08,00,26,16.10
2014,07,08,00,27,16.10
2014,07,08,00,28,16.10
2014,07,08,00,29,16.10
2014,07,08,00,30,16.10
2014,07,08,00,31,16.10
2014,07,08,00,32,16.10
2014,07,08,00,33,16.10
2014,07,08,00,34,16.10
2014,07,08,00,35,16.10
2014,07,08,00,36,16.10
2014,07,08,00,37,16.10
2014,07,08,00,38,16.10
2014,07,08,00,39,16.10
2014,07,08,00,40,16.10
2014,07,08,00,41,16.00
2014,07,08,00,42,16.00
2014,07,08,00,43,16.00
2014,07,08,00,44,16.00
2014,07,08,00,45,16.00
2014,07,08,00,46,16.00
2014,07,08,00,47,15.90
2014,07,08,00,48,15.90
2014,07,08,00,49,15.90
2014,07,08,00,50,15.90
2014,07,08,00,51,15.90
2014,07,08,00,52,15.90
2014,07,08,00,53,15.90
2014,07,08,00,54,15.90
2014,07,08,00,55,15.90
2014,07,08,00,56,15.80
2014,07,08,00,57,15.80
2014,07,08,00,58,15.80
2014,07,08,00,59,15.80
2014,07,08,01,00,15.80
2014,07,08,01,01,15.80
2014,07,08,01,02,15.80
2014,07,08,01,03,15.80
2014,07,08,01,04,15.80
2014,07,08,01,05,15.80
2014,07,08,01,06,15.80
2014,07,08,01,07,15.80
2014,07,08,01,08,15.70
2014,07,08,01,09,15.70
2014,07,08,01,10,15.70
2014,07,08,01,11,15.70
2014,07,08,01,12,15.70
2014,07,08,01,13,15.70
2014,07,08,01,14,15.70
2014,07,08,01,15,15.70
2014,07,08,01,16,15.70
2014,07,08,01,17,15.70
2014,07,08,01,18,15.70
2014,07,08,01,19,15.70
2014,07,08,01,20,15.70
2014,07,08,01,21,15.60
2014,07,08,01,22,15.60
2014,07,08,01,23,15.60
2014,07,08,01,24,15.60
2014,07,08,01,25,15.60
2014,07,08,01,26,15.60
2014,07,08,01,27,15.60
2014,07,08,01,28,15.60
2014,07,08,01,29,15.50
2014,07,08,01,30,15.50
2014,07,08,01,31,15.50
2014,07,08,01,32,15.50
2014,07,08,01,33,15.50
2014,07,08,01,34,15.50
2014,07,08,01,35,15.40
2014,07,08,01,36,15.40
2014,07,08,01,37,15.40
2014,07,08,01,38,15.40
2014,07,08,01,39,15.40
2014,07,08,01,40,15.40
2014,07,08,01,41,15.40
2014,07,08,01,42,15.40
2014,07,08,01,43,15.40
2014,07,08,01,44,15.40
2014,07,08,01,45,15.30
2014,07,08,01,46,15.30
2014,07,08,01,47,15.30
2014,07,08,01,48,15.30
2014,07,08,01,49,15.30
2014,07,08,01,50,15.30
2014,07,08,01,51,15.30
2014,07,08,01,52,15.30
2014,07,08,01,53,15.20
2014,07,08,01,54,15.20
2014,07,08,01,55,15.20
2014,07,08,01,56,15.20
2014,07,08,01,57,15.20
2014,07,08,01,58,15.20
2014,07,08,01,59,15.20
2014,07,08,02,00,15.20
2014,07,08,02,01,15.20
2014,07,08,02,02,15.20
2014,07,08,02,03,15.20
2014,07,08,02,04,15.10
2014,07,08,02,05,15.10
2014,07,08,02,06,15.10
2014,07,08,02,07,15.10
2014,07,08,02,08,15.10
2014,07,08,02,09,15.10
2014,07,08,02,10,15.10
2014,07,08,02,11,15.10
2014,07,08,02,12,15.10
2014,07,08,02,13,15.10
2014,07,08,02,14,15.00
2014,07,08,02,15,15.00
2014,07,08,02,16,15.00
2014,07,08,02,17,15.00
2014,07,08,02,18,15.00
2014,07,08,02,19,15.00
2014,07,08,02,20,15.00
2014,07,08,02,21,15.00
2014,07,08,02,22,15.00
2014,07,08,02,23,15.00
2014,07,08,02,24,15.00
2014,07,08,02,25,15.00
2014,07,08,02,26,15.00
2014,07,08,02,27,15.00
2014,07,08,02,28,15.00
2014,07,08,02,29,15.00
2014,07,08,02,30,15.00
2014,07,08,02,31,15.00
2014,07,08,02,32,15.00
2014,07,08,02,33,15.00
2014,07,08,02,34,15.00
2014,07,08,02,35,15.00
2014,07,08,02,36,15.00
2014,07,08,02,37,15.00
2014,07,08,02,38,15.00
2014,07,08,02,39,15.00
2014,07,08,02,40,14.90
2014,07,08,02,41,14.90
2014,07,08,02,42,14.90
2014,07,08,02,43,14.90
2014,07,08,02,44,14.80
2014,07,08,02,45,14.80
2014,07,08,02,46,14.80
2014,07,08,02,47,14.80
2014,07,08,02,48,14.80
2014,07,08,02,49,14.80
2014,07,08,02,50,14.80
2014,07,08,02,51,14.80
2014,07,08,02,52,14.80
2014,07,08,02,53,14.80
2014,07,08,02,54,14.70
2014,07,08,02,55,14.70
2014,07,08,02,56,14.70
2014,07,08,02,57,14.70
2014,07,08,02,58,14.70
2014,07,08,02,59,14.70
2014,07,08,03,00,14.70
2014,07,08,03,01,14.70
2014,07,08,03,02,14.70
2014,07,08,03,03,14.70
2014,07,08,03,04,14.70
2014,07,08,03,05,14.60
2014,07,08,03,06,14.60
2014,07,08,03,07,14.60
2014,07,08,03,08,14.60
2014,07,08,03,09,14.60
2014,07,08,03,10,14.60
2014,07,08,03,11,14.60
2014,07,08,03,12,14.60
2014,07,08,03,13,14.60
2014,07,08,03,14,14.60
2014,07,08,03,15,14.60
2014,07,08,03,16,14.50
2014,07,08,03,17,14.50
2014,07,08,03,18,14.50
2014,07,08,03,19,14.50
2014,07,08,03,20,14.50
2014,07,08,03,21,14.40
2014,07,08,03,22,14.40
2014,07,08,03,23,14.40
2014,07,08,03,24,14.40
2014,07,08,03,25,14.40
2014,07,08,03,26,14.40
2014,07,08,03,27,14.40
2014,07,08,03,28,14.40
2014,07,08,03,29,14.40
2014,07,08,03,30,14.40
2014,07,08,03,31,14.40
2014,07,08,03,32,14.40
2014,07,08,03,33,14.40
2014,07,08,03,34,14.40
2014,07,08,03,35,14.40
2014,07,08,03,36,14.30
2014,07,08,03,37,14.30
2014,07,08,03,38,14.30
2014,07,08,03,39,14.30
2014,07,08,03,40,14.30
2014,07,08,03,41,14.30
2014,07,08,03,42,14.30
2014,07,08,03,43,14.30
2014,07,08,03,44,14.30
2014,07,08,03,45,14.30
2014,07,08,03,46,14.30
2014,07,08,03,47,14.20
2014,07,08,03,48,14.20
2014,07,08,03,49,14.20
2014,07,08,03,50,14.20
2014,07,08,03,51,14.20
2014,07,08,03,52,14.20
2014,07,08,03,53,14.20
2014,07,08,03,54,14.20
2014,07,08,03,55,14.20
2014,07,08,03,56,14.20
2014,07,08,03,57,14.20
2014,07,08,03,58,14.10
2014,07,08,03,59,14.10
2014,07,08,04,00,14.10
2014,07,08,04,01,14.10
2014,07,08,04,02,14.10
2014,07,08,04,03,14.10
2014,07,08,04,04,14.10
2014,07,08,04,05,14.10
2014,07,08,04,06,14.10
2014,07,08,04,07,14.10
2014,07,08,04,08,14.10
2014,07,08,04,09,14.10
2014,07,08,04,10,14.10
2014,07,08,04,11,14.10
2014,07,08,04,12,14.00
2014,07,08,04,13,14.00
2014,07,08,04,14,14.00
2014,07,08,04,15,14.00
2014,07,08,04,16,14.00
2014,07,08,04,17,14.00
2014,07,08,04,18,14.00
2014,07,08,04,19,13.90
2014,07,08,04,20,13.90
2014,07,08,04,21,13.90
2014,07,08,04,22,13.90
2014,07,08,04,23,13.90
2014,07,08,04,24,13.90
2014,07,08,04,25,13.90
2014,07,08,04,26,13.90
2014,07,08,04,27,13.90
2014,07,08,04,28,13.90
2014,07,08,04,29,13.90
2014,07,08,04,30,13.90
2014,07,08,04,31,13.90
2014,07,08,04,32,13.80
2014,07,08,04,33,13.80
2014,07,08,04,34,13.80
2014,07,08,04,35,13.80
2014,07,08,04,36,13.80
2014,07,08,04,37,13.80
2014,07,08,04,38,13.80
2014,07,08,04,39,13.80
2014,07,08,04,40,13.80
2014,07,08,04,41,13.80
2014,07,08,04,42,13.80
2014,07,08,04,43,13.70
2014,07,08,04,44,13.70
2014,07,08,04,45,13.70
2014,07,08,04,46,13.70
2014,07,08,04,47,13.70
2014,07,08,04,48,13.70
2014,07,08,04,49,13.70
2014,07,08,04,50,13.70
2014,07,08,04,51,13.70
2014,07,08,04,52,13.70
2014,07,08,04,53,13.70
2014,07,08,04,54,13.70
2014,07,08,04,55,13.70
2014,07,08,04,56,13.70
2014,07,08,04,57,13.70
2014,07,08,04,58,13.60
2014,07,08,04,59,13.60
2014,07,08,05,00,13.60
2014,07,08,05,01,13.60
2014,07,08,05,02,13.60
2014,07,08,05,03,13.60
2014,07,08,05,04,13.60
2014,07,08,05,05,13.60
2014,07,08,05,06,13.60
2014,07,08,05,07,13.50
2014,07,08,05,08,13.50
2014,07,08,05,09,13.50
2014,07,08,05,10,13.50
2014,07,08,05,11,13.50
2014,07,08,05,12,13.50
2014,07,08,05,13,13.50
2014,07,08,05,14,13.50
2014,07,08,05,15,13.50
2014,07,08,05,16,13.40
2014,07,08,05,17,13.40
2014,07,08,05,18,13.40
2014,07,08,05,19,13.40
2014,07,08,05,20,13.40
2014,07,08,05,21,13.40
2014,07,08,05,22,13.40
2014,07,08,05,23,13.40
2014,07,08,05,24,13.40
2014,07,08,05,25,13.40
2014,07,08,05,26,13.30
2014,07,08,05,27,13.30
2014,07,08,05,28,13.30
2014,07,08,05,29,13.30
2014,07,08,05,30,13.30
2014,07,08,05,31,13.30
2014,07,08,05,32,13.30
2014,07,08,05,33,13.30
2014,07,08,05,34,13.30
2014,07,08,05,35,13.30
2014,07,08,05,36,13.20
2014,07,08,05,37,13.20
2014,07,08,05,38,13.20
2014,07,08,05,39,13.20
2014,07,08,05,40,13.20
2014,07,08,05,41,13.20
2014,07,08,05,42,13.20
2014,07,08,05,43,13.20
2014,07,08,05,44,13.20
2014,07,08,05,45,13.20
2014,07,08,05,46,13.20
2014,07,08,05,47,13.20
2014,07,08,05,48,13.20
2014,07,08,05,49,13.20
2014,07,08,05,50,13.20
2014,07,08,05,51,13.20
2014,07,08,05,52,13.20
2014,07,08,05,53,13.20
2014,07,08,05,54,13.20
2014,07,08,05,55,13.20
2014,07,08,05,56,13.20
2014,07,08,05,57,13.20
2014,07,08,05,58,13.20
2014,07,08,05,59,13.20
2014,07,08,06,00,13.20
2014,07,08,06,01,13.20
2014,07,08,06,02,13.10
2014,07,08,06,03,13.10
2014,07,08,06,04,13.10
2014,07,08,06,05,13.10
2014,07,08,06,06,13.10
2014,07,08,06,07,13.10
2014,07,08,06,08,13.10
2014,07,08,06,09,13.10
2014,07,08,06,10,13.10
2014,07,08,06,11,13.20
2014,07,08,06,12,13.20
2014,07,08,06,13,13.20
2014,07,08,06,14,13.20
2014,07,08,06,15,13.20
2014,07,08,06,16,13.20
2014,07,08,06,17,13.20
2014,07,08,06,18,13.20
2014,07,08,06,19,13.20
2014,07,08,06,20,13.20
2014,07,08,06,21,13.20
2014,07,08,06,22,13.20
2014,07,08,06,23,13.20
2014,07,08,06,24,13.20
2014,07,08,06,25,13.20
2014,07,08,06,26,13.20
2014,07,08,06,27,13.30
2014,07,08,06,28,13.30
2014,07,08,06,29,13.30
2014,07,08,06,30,13.30
2014,07,08,06,31,13.30
2014,07,08,06,32,13.30
2014,07,08,06,33,13.30
2014,07,08,06,34,13.30
2014,07,08,06,35,13.30
2014,07,08,06,36,13.30
2014,07,08,06,37,13.30
2014,07,08,06,38,13.30
2014,07,08,06,39,13.30
2014,07,08,06,40,13.30
2014,07,08,06,41,13.30
2014,07,08,06,42,13.40
2014,07,08,06,43,13.40
2014,07,08,06,44,13.40
2014,07,08,06,45,13.40
2014,07,08,06,46,13.40
2014,07,08,06,47,13.40
2014,07,08,06,48,13.40
2014,07,08,06,49,13.40
2014,07,08,06,50,13.40
2014,07,08,06,51,13.40
2014,07,08,06,52,13.50
2014,07,08,06,53,13.50
2014,07,08,06,54,13.50
2014,07,08,06,55,13.60
2014,07,08,06,56,13.60
2014,07,08,06,57,13.60
2014,07,08,06,58,13.60
2014,07,08,06,59,13.60
2014,07,08,07,00,13.70
2014,07,08,07,01,13.70
2014,07,08,07,02,13.70
2014,07,08,07,03,13.70
2014,07,08,07,04,13.80
2014,07,08,07,05,13.80
2014,07,08,07,06,13.80
2014,07,08,07,07,13.90
2014,07,08,07,08,13.90
2014,07,08,07,09,14.00
2014,07,08,07,10,14.00
2014,07,08,07,11,14.10
2014,07,08,07,12,14.10
2014,07,08,07,13,14.10
2014,07,08,07,14,14.20
2014,07,08,07,15,14.20
2014,07,08,07,16,14.30
2014,07,08,07,17,14.30
2014,07,08,07,18,14.30
2014,07,08,07,19,14.40
2014,07,08,07,20,14.40
2014,07,08,07,21,14.40
2014,07,08,07,22,14.50
2014,07,08,07,23,14.60
2014,07,08,07,24,14.60
2014,07,08,07,25,14.70
2014,07,08,07,26,14.70
2014,07,08,07,27,14.80
2014,07,08,07,28,15.00
2014,07,08,07,29,15.00
2014,07,08,07,30,15.10
2014,07,08,07,31,15.30
2014,07,08,07,32,15.40
2014,07,08,07,33,15.50
2014,07,08,07,34,15.70
2014,07,08,07,35,15.80
2014,07,08,07,36,15.90
2014,07,08,07,37,15.90
2014,07,08,07,38,16.00
2014,07,08,07,39,16.00
2014,07,08,07,40,16.10
2014,07,08,07,41,16.10
2014,07,08,07,42,16.10
2014,07,08,07,43,16.10
2014,07,08,07,44,16.20
2014,07,08,07,45,16.20
2014,07,08,07,46,16.30
2014,07,08,07,47,16.40
2014,07,08,07,48,16.50
2014,07,08,07,49,16.60
2014,07,08,07,50,16.70
2014,07,08,07,51,16.80
2014,07,08,07,52,16.90
2014,07,08,07,53,17.00
2014,07,08,07,54,17.10
2014,07,08,07,55,17.20
2014,07,08,07,56,17.30
2014,07,08,07,57,17.30
2014,07,08,07,58,17.40
2014,07,08,07,59,17.50
2014,07,08,08,00,17.60
2014,07,08,08,01,17.60
2014,07,08,08,02,17.70
2014,07,08,08,03,17.80
2014,07,08,08,04,17.90
2014,07,08,08,05,18.10
2014,07,08,08,06,18.20
2014,07,08,08,07,18.40
2014,07,08,08,08,18.50
2014,07,08,08,09,18.70
2014,07,08,08,10,18.80
2014,07,08,08,11,19.00
2014,07,08,08,12,19.10
2014,07,08,08,13,19.20
2014,07,08,08,14,19.40
2014,07,08,08,15,19.50
2014,07,08,08,16,19.70
2014,07,08,08,17,19.80
2014,07,08,08,18,20.00
2014,07,08,08,19,20.10
2014,07,08,08,20,20.20
2014,07,08,08,21,20.30
2014,07,08,08,22,20.30
2014,07,08,08,23,20.40
2014,07,08,08,24,20.40
2014,07,08,08,25,20.40
2014,07,08,08,26,20.50
2014,07,08,08,27,20.50
2014,07,08,08,28,20.60
2014,07,08,08,29,20.60
2014,07,08,08,30,20.70
2014,07,08,08,31,20.70
2014,07,08,08,32,20.80
2014,07,08,08,33,20.80
2014,07,08,08,34,20.90
2014,07,08,08,35,21.10
2014,07,08,08,36,21.10
2014,07,08,08,37,21.30
2014,07,08,08,38,21.40
2014,07,08,08,39,21.50
2014,07,08,08,40,21.50
2014,07,08,08,41,21.60
2014,07,08,08,42,21.60
2014,07,08,08,43,21.60
2014,07,08,08,44,21.60
2014,07,08,08,45,21.60
2014,07,08,08,46,21.60
2014,07,08,08,47,21.60
2014,07,08,08,48,21.70
2014,07,08,08,49,21.60
2014,07,08,08,50,21.70
2014,07,08,08,51,21.70
2014,07,08,08,52,21.80
2014,07,08,08,53,21.80
2014,07,08,08,54,21.80
2014,07,08,08,55,21.80
2014,07,08,08,56,21.80
2014,07,08,08,57,21.80
2014,07,08,08,58,21.80
2014,07,08,08,59,21.90
2014,07,08,09,00,21.90
2014,07,08,09,01,21.90
2014,07,08,09,02,22.00
2014,07,08,09,03,22.10
2014,07,08,09,04,22.20
2014,07,08,09,05,22.30
2014,07,08,09,06,22.40
2014,07,08,09,07,22.50
2014,07,08,09,08,22.50
2014,07,08,09,09,22.60
2014,07,08,09,10,22.60
2014,07,08,09,11,22.60
2014,07,08,09,12,22.60
2014,07,08,09,13,22.60
2014,07,08,09,14,22.70
2014,07,08,09,15,22.70
2014,07,08,09,16,22.80
2014,07,08,09,17,22.80
2014,07,08,09,18,22.90
2014,07,08,09,19,22.90
2014,07,08,09,20,23.00
2014,07,08,09,21,23.00
2014,07,08,09,22,23.10
2014,07,08,09,23,23.10
2014,07,08,09,24,23.00
2014,07,08,09,25,22.90
2014,07,08,09,26,22.90
2014,07,08,09,27,22.90
2014,07,08,09,28,22.80
2014,07,08,09,29,22.80
2014,07,08,09,30,22.70
2014,07,08,09,31,22.70
2014,07,08,09,32,22.80
2014,07,08,09,33,22.80
2014,07,08,09,34,22.80
2014,07,08,09,35,22.80
2014,07,08,09,36,22.90
2014,07,08,09,37,22.90
2014,07,08,09,38,22.90
2014,07,08,09,39,23.00
2014,07,08,09,40,23.10
2014,07,08,09,41,23.10
2014,07,08,09,42,23.20
2014,07,08,09,43,23.30
2014,07,08,09,44,23.30
2014,07,08,09,45,23.40
2014,07,08,09,46,23.50
2014,07,08,09,47,23.50
2014,07,08,09,48,23.60
2014,07,08,09,49,23.70
2014,07,08,09,50,23.70
2014,07,08,09,51,23.70
2014,07,08,09,52,23.80
2014,07,08,09,53,23.80
2014,07,08,09,54,23.90
2014,07,08,09,55,23.90
2014,07,08,09,56,23.80
2014,07,08,09,57,23.80
2014,07,08,09,58,23.70
2014,07,08,09,59,23.70
2014,07,08,10,00,23.70
2014,07,08,10,01,23.70
2014,07,08,10,02,23.70
2014,07,08,10,03,23.70
2014,07,08,10,04,23.80
2014,07,08,10,05,23.80
2014,07,08,10,06,23.80
2014,07,08,10,07,23.80
2014,07,08,10,08,23.80
2014,07,08,10,09,23.80
2014,07,08,10,10,23.80
2014,07,08,10,11,23.80
2014,07,08,10,12,23.80
2014,07,08,10,13,23.80
2014,07,08,10,14,23.90
2014,07,08,10,15,23.90
2014,07,08,10,16,24.00
2014,07,08,10,17,24.00
2014,07,08,10,18,24.10
2014,07,08,10,19,24.10
2014,07,08,10,20,24.10
2014,07,08,10,21,24.10
2014,07,08,10,22,24.10
2014,07,08,10,23,24.10
2014,07,08,10,24,24.20
2014,07,08,10,25,24.20
2014,07,08,10,26,24.20
2014,07,08,10,27,24.30
2014,07,08,10,28,24.40
2014,07,08,10,29,24.40
2014,07,08,10,30,24.40
2014,07,08,10,31,24.50
2014,07,08,10,32,24.50
2014,07,08,10,33,24.50
2014,07,08,10,34,24.50
2014,07,08,10,35,24.50
2014,07,08,10,36,24.50
2014,07,08,10,37,24.50
2014,07,08,10,38,24.50
2014,07,08,10,39,24.50
2014,07,08,10,40,24.50
2014,07,08,10,41,24.50
2014,07,08,10,42,24.50
2014,07,08,10,43,24.60
2014,07,08,10,44,24.60
2014,07,08,10,45,24.60
2014,07,08,10,46,24.60
2014,07,08,10,47,24.60
2014,07,08,10,48,24.60
2014,07,08,10,49,24.70
2014,07,08,10,50,24.70
2014,07,08,10,51,24.80
2014,07,08,10,52,24.80
2014,07,08,10,53,24.80
2014,07,08,10,54,24.80
2014,07,08,10,55,24.90
2014,07,08,10,56,24.90
2014,07,08,10,57,24.90
2014,07,08,10,58,24.80
2014,07,08,10,59,24.70
2014,07,08,11,00,24.60
2014,07,08,11,01,24.70
2014,07,08,11,02,24.70
2014,07,08,11,03,24.70
2014,07,08,11,04,24.80
2014,07,08,11,05,24.80
2014,07,08,11,06,24.80
2014,07,08,11,07,24.90
2014,07,08,11,08,24.90
2014,07,08,11,09,25.00
2014,07,08,11,10,24.90
2014,07,08,11,11,24.80
2014,07,08,11,12,24.60
2014,07,08,11,13,24.50
2014,07,08,11,14,24.50
2014,07,08,11,15,24.50
2014,07,08,11,16,24.60
2014,07,08,11,17,24.60
2014,07,08,11,18,24.70
2014,07,08,11,19,24.70
2014,07,08,11,20,24.70
2014,07,08,11,21,24.70
2014,07,08,11,22,24.70
2014,07,08,11,23,24.70
2014,07,08,11,24,24.60
2014,07,08,11,25,24.50
2014,07,08,11,26,24.50
2014,07,08,11,27,24.60
2014,07,08,11,28,24.60
2014,07,08,11,29,24.60
2014,07,08,11,30,24.60
2014,07,08,11,31,24.70
2014,07,08,11,32,24.80
2014,07,08,11,33,24.80
2014,07,08,11,34,24.90
2014,07,08,11,35,25.00
2014,07,08,11,36,25.20
2014,07,08,11,37,25.20
2014,07,08,11,38,25.30
2014,07,08,11,39,25.50
2014,07,08,11,40,25.60
2014,07,08,11,41,25.70
2014,07,08,11,42,25.80
2014,07,08,11,43,25.90
2014,07,08,11,44,25.90
2014,07,08,11,45,25.70
2014,07,08,11,46,25.60
2014,07,08,11,47,25.60
2014,07,08,11,48,25.70
2014,07,08,11,49,25.70
2014,07,08,11,50,25.70
2014,07,08,11,51,25.60
2014,07,08,11,52,25.50
2014,07,08,11,53,25.50
2014,07,08,11,54,25.50
2014,07,08,11,55,25.40
2014,07,08,11,56,25.30
2014,07,08,11,57,25.30
2014,07,08,11,58,25.30
2014,07,08,11,59,25.20
2014,07,08,12,00,25.20
2014,07,08,12,01,25.10
2014,07,08,12,02,25.10
2014,07,08,12,03,25.10
2014,07,08,12,04,25.10
2014,07,08,12,05,25.10
2014,07,08,12,06,25.10
2014,07,08,12,07,25.00
2014,07,08,12,08,25.00
2014,07,08,12,09,24.90
2014,07,08,12,10,24.80
2014,07,08,12,11,24.80
2014,07,08,12,12,24.70
2014,07,08,12,13,24.70
2014,07,08,12,14,24.80
2014,07,08,12,15,24.80
2014,07,08,12,16,24.80
2014,07,08,12,17,24.90
2014,07,08,12,18,25.00
2014,07,08,12,19,25.00
2014,07,08,12,20,25.10
2014,07,08,12,21,25.10
2014,07,08,12,22,25.20
2014,07,08,12,23,25.10
2014,07,08,12,24,25.20
2014,07,08,12,25,25.20
2014,07,08,12,26,25.10
2014,07,08,12,27,25.10
2014,07,08,12,28,25.00
2014,07,08,12,29,25.00
2014,07,08,12,30,24.80
2014,07,08,12,31,24.60
2014,07,08,12,32,24.50
2014,07,08,12,33,24.50
2014,07,08,12,34,24.50
2014,07,08,12,35,24.50
2014,07,08,12,36,24.40
2014,07,08,12,37,24.30
2014,07,08,12,38,24.30
2014,07,08,12,39,24.40
2014,07,08,12,40,24.40
2014,07,08,12,41,24.50
2014,07,08,12,42,24.60
2014,07,08,12,43,24.70
2014,07,08,12,44,24.70
2014,07,08,12,45,24.80
2014,07,08,12,46,24.80
2014,07,08,12,47,24.80
2014,07,08,12,48,24.80
2014,07,08,12,49,24.80
2014,07,08,12,50,24.90
2014,07,08,12,51,25.00
2014,07,08,12,52,25.00
2014,07,08,12,53,25.00
2014,07,08,12,54,25.10
2014,07,08,12,55,25.10
2014,07,08,12,56,25.20
2014,07,08,12,57,25.10
2014,07,08,12,58,25.10
2014,07,08,12,59,25.00
2014,07,08,13,00,24.90
2014,07,08,13,01,24.90
2014,07,08,13,02,24.90
2014,07,08,13,03,24.80
2014,07,08,13,04,24.80
2014,07,08,13,05,24.90
2014,07,08,13,06,24.90
2014,07,08,13,07,25.00
2014,07,08,13,08,25.00
2014,07,08,13,09,25.10
2014,07,08,13,10,25.20
2014,07,08,13,11,25.30
2014,07,08,13,12,25.40
2014,07,08,13,13,25.40
2014,07,08,13,14,25.40
2014,07,08,13,15,25.40
2014,07,08,13,16,25.50
2014,07,08,13,17,25.60
2014,07,08,13,18,25.60
2014,07,08,13,19,25.60
2014,07,08,13,20,25.60
2014,07,08,13,21,25.60
2014,07,08,13,22,25.60
2014,07,08,13,23,25.50
2014,07,08,13,24,25.40
2014,07,08,13,25,25.30
2014,07,08,13,26,25.20
2014,07,08,13,27,25.10
2014,07,08,13,28,25.10
2014,07,08,13,29,25.20
2014,07,08,13,30,25.30
2014,07,08,13,31,25.30
2014,07,08,13,32,25.30
2014,07,08,13,33,25.30
2014,07,08,13,34,25.30
2014,07,08,13,35,25.30
2014,07,08,13,36,25.20
2014,07,08,13,37,25.10
2014,07,08,13,38,25.10
2014,07,08,13,39,25.10
2014,07,08,13,40,25.10
2014,07,08,13,41,25.10
2014,07,08,13,42,25.00
2014,07,08,13,43,25.10
2014,07,08,13,44,25.20
2014,07,08,13,45,25.30
2014,07,08,13,46,25.50
2014,07,08,13,47,25.60
2014,07,08,13,48,25.80
2014,07,08,13,49,25.80
2014,07,08,13,50,25.70
2014,07,08,13,51,25.60
2014,07,08,13,52,25.60
2014,07,08,13,53,25.60
2014,07,08,13,54,25.50
2014,07,08,13,55,25.30
2014,07,08,13,56,25.20
2014,07,08,13,57,25.00
2014,07,08,13,58,24.90
2014,07,08,13,59,24.90
2014,07,08,14,00,25.00
2014,07,08,14,01,25.00
2014,07,08,14,02,25.10
2014,07,08,14,03,25.10
2014,07,08,14,04,25.10
2014,07,08,14,05,25.10
2014,07,08,14,06,25.10
2014,07,08,14,07,25.20
2014,07,08,14,08,25.20
2014,07,08,14,09,25.20
2014,07,08,14,10,25.30
2014,07,08,14,11,25.30
2014,07,08,14,12,25.30
2014,07,08,14,13,25.40
2014,07,08,14,14,25.50
2014,07,08,14,15,25.60
2014,07,08,14,16,25.70
2014,07,08,14,17,25.80
2014,07,08,14,18,25.90
2014,07,08,14,19,26.00
2014,07,08,14,20,26.10
2014,07,08,14,21,26.30
2014,07,08,14,22,26.50
2014,07,08,14,23,26.60
2014,07,08,14,24,26.70
2014,07,08,14,25,26.80
2014,07,08,14,26,26.90
2014,07,08,14,27,26.80
2014,07,08,14,28,26.80
2014,07,08,14,29,26.80
2014,07,08,14,30,26.80
2014,07,08,14,31,26.80
2014,07,08,14,32,26.60
2014,07,08,14,33,26.60
2014,07,08,14,34,26.70
2014,07,08,14,35,26.70
2014,07,08,14,36,26.80
2014,07,08,14,37,26.80
2014,07,08,14,38,26.90
2014,07,08,14,39,26.90
2014,07,08,14,40,27.00
2014,07,08,14,41,27.10
2014,07,08,14,42,27.10
2014,07,08,14,43,27.20
2014,07,08,14,44,27.20
2014,07,08,14,45,27.10
2014,07,08,14,46,27.10
2014,07,08,14,47,27.00
2014,07,08,14,48,26.90
2014,07,08,14,49,26.60
2014,07,08,14,50,26.60
2014,07,08,14,51,26.60
2014,07,08,14,52,26.60
2014,07,08,14,53,26.70
2014,07,08,14,54,26.70
2014,07,08,14,55,26.60
2014,07,08,14,56,26.60
2014,07,08,14,57,26.50
2014,07,08,14,58,26.40
2014,07,08,14,59,26.40
2014,07,08,15,00,26.20
2014,07,08,15,01,26.10
2014,07,08,15,02,26.00
2014,07,08,15,03,25.90
2014,07,08,15,04,26.00
2014,07,08,15,05,26.10
2014,07,08,15,06,26.20
2014,07,08,15,07,26.30
2014,07,08,15,08,26.40
2014,07,08,15,09,26.50
2014,07,08,15,10,26.60
2014,07,08,15,11,26.80
2014,07,08,15,12,26.70
2014,07,08,15,13,26.70
2014,07,08,15,14,26.70
2014,07,08,15,15,26.70
2014,07,08,15,16,26.70
2014,07,08,15,17,26.80
2014,07,08,15,18,26.80
2014,07,08,15,19,26.90
2014,07,08,15,20,27.00
2014,07,08,15,21,27.20
2014,07,08,15,22,27.20
2014,07,08,15,23,27.20
2014,07,08,15,24,27.30
2014,07,08,15,25,27.30
2014,07,08,15,26,27.30
2014,07,08,15,27,27.30
2014,07,08,15,28,27.30
2014,07,08,15,29,27.10
2014,07,08,15,30,27.10
2014,07,08,15,31,27.10
2014,07,08,15,32,27.00
2014,07,08,15,33,27.00
2014,07,08,15,34,26.90
2014,07,08,15,35,26.90
2014,07,08,15,36,26.80
2014,07,08,15,37,26.80
2014,07,08,15,38,26.80
2014,07,08,15,39,26.80
2014,07,08,15,40,26.70
2014,07,08,15,41,26.70
2014,07,08,15,42,26.60
2014,07,08,15,43,26.60
2014,07,08,15,44,26.60
2014,07,08,15,45,26.60
2014,07,08,15,46,26.70
2014,07,08,15,47,26.70
2014,07,08,15,48,26.70
2014,07,08,15,49,26.70
2014,07,08,15,50,26.60
2014,07,08,15,51,26.60
2014,07,08,15,52,26.50
2014,07,08,15,53,26.40
2014,07,08,15,54,26.40
2014,07,08,15,55,26.50
2014,07,08,15,56,26.50
2014,07,08,15,57,26.60
2014,07,08,15,58,26.60
2014,07,08,15,59,26.70
2014,07,08,16,00,26.80
2014,07,08,16,01,26.90
2014,07,08,16,02,26.90
2014,07,08,16,03,26.90
2014,07,08,16,04,26.90
2014,07,08,16,05,26.90
2014,07,08,16,06,26.90
2014,07,08,16,07,26.90
2014,07,08,16,08,26.80
2014,07,08,16,09,26.70
2014,07,08,16,10,26.70
2014,07,08,16,11,26.70
2014,07,08,16,12,26.60
2014,07,08,16,13,26.60
2014,07,08,16,14,26.60
2014,07,08,16,15,26.60
2014,07,08,16,16,26.50
2014,07,08,16,17,26.50
2014,07,08,16,18,26.60
2014,07,08,16,19,26.60
2014,07,08,16,20,26.60
2014,07,08,16,21,26.60
2014,07,08,16,22,26.70
2014,07,08,16,23,26.70
2014,07,08,16,24,26.70
2014,07,08,16,25,26.60
2014,07,08,16,26,26.50
2014,07,08,16,27,26.50
2014,07,08,16,28,26.50
2014,07,08,16,29,26.50
2014,07,08,16,30,26.50
2014,07,08,16,31,26.50
2014,07,08,16,32,26.60
2014,07,08,16,33,26.60
2014,07,08,16,34,26.60
2014,07,08,16,35,26.60
2014,07,08,16,36,26.60
2014,07,08,16,37,26.60
2014,07,08,16,38,26.70
2014,07,08,16,39,26.70
2014,07,08,16,40,26.70
2014,07,08,16,41,26.80
2014,07,08,16,42,26.80
2014,07,08,16,43,26.80
2014,07,08,16,44,26.90
2014,07,08,16,45,27.00
2014,07,08,16,46,27.00
2014,07,08,16,47,27.10
2014,07,08,16,48,27.10
2014,07,08,16,49,27.10
2014,07,08,16,50,27.00
2014,07,08,16,51,27.00
2014,07,08,16,52,27.00
2014,07,08,16,53,27.00
2014,07,08,16,54,27.00
2014,07,08,16,55,27.00
2014,07,08,16,56,26.90
2014,07,08,16,57,27.00
2014,07,08,16,58,27.00
2014,07,08,16,59,27.00
2014,07,08,17,00,27.00
2014,07,08,17,01,27.10
2014,07,08,17,02,27.10
2014,07,08,17,03,27.10
2014,07,08,17,04,27.20
2014,07,08,17,05,27.20
2014,07,08,17,06,27.30
2014,07,08,17,07,27.30
2014,07,08,17,08,27.40
2014,07,08,17,09,27.40
2014,07,08,17,10,27.50
2014,07,08,17,11,27.50
2014,07,08,17,12,27.50
2014,07,08,17,13,27.50
2014,07,08,17,14,27.50
2014,07,08,17,15,27.40
2014,07,08,17,16,27.40
2014,07,08,17,17,27.50
2014,07,08,17,18,27.50
2014,07,08,17,19,27.40